When you browse on this site, cookies collect data to enhance your experience and personalize the content and advertising you see.
Visit our Privacy Policy to learn more. By continuing to use the site, you agree to this use of cookies and data.

Stündliche Wetter Rio de Janeiro

Heute, 14 Juli, Dienstag

Zeit Temperatur Niederschläge Wind Luftdruck Luftfeuchtigkeit
00:00 +25°C° 0 mm 1 m/S 760 mmHg 65%
01:00 +25°C° 0 mm 1 m/S 759 mmHg 66%
02:00 +24°C° 0 mm 1 m/S 759 mmHg 66%
03:00 +24°C° 0 mm 2 m/S 759 mmHg 67%
04:00 +24°C° 0 mm 2 m/S 759 mmHg 67%
05:00 +24°C° 0 mm 3 m/S 759 mmHg 67%
06:00 +24°C° 0 mm 3 m/S 759 mmHg 66%
07:00 +25°C° 0 mm 3 m/S 760 mmHg 69%
08:00 +25°C° 0 mm 3 m/S 761 mmHg 71%
09:00 +26°C° 0 mm 3 m/S 761 mmHg 73%
10:00 +26°C° 0.2 mm 3 m/S 761 mmHg 75%
11:00 +26°C° 0.2 mm 2 m/S 761 mmHg 77%
12:00 +25°C° 0.2 mm 2 m/S 761 mmHg 78%
13:00 +25°C° 0.2 mm 2 m/S 761 mmHg 78%
14:00 +25°C° 0.2 mm 2 m/S 761 mmHg 78%
15:00 +25°C° 0.2 mm 3 m/S 760 mmHg 77%
16:00 +25°C° 0.6 mm 3 m/S 761 mmHg 80%
17:00 +24°C° 0.6 mm 3 m/S 761 mmHg 83%
18:00 +22°C° 0.6 mm 3 m/S 761 mmHg 86%
19:00 +22°C° 0.1 mm 3 m/S 762 mmHg 85%
20:00 +22°C° 0.1 mm 3 m/S 762 mmHg 85%
21:00 +22°C° 0.1 mm 3 m/S 763 mmHg 84%
22:00 +22°C° 0.4 mm 3 m/S 763 mmHg 85%
23:00 +21°C° 0.4 mm 3 m/S 763 mmHg 86%

Morgen, 15 Juli, Mittwoch

Zeit Temperatur Niederschläge Wind Luftdruck Luftfeuchtigkeit
00:00 +21°C° 0.4 mm 3 m/S 763 mmHg 87%
01:00 +21°C° 0.4 mm 3 m/S 763 mmHg 87%
02:00 +21°C° 0.4 mm 3 m/S 763 mmHg 86%
03:00 +20°C° 0.4 mm 3 m/S 763 mmHg 86%
04:00 +20°C° 0.5 mm 3 m/S 763 mmHg 86%
05:00 +20°C° 0.5 mm 3 m/S 763 mmHg 86%
06:00 +20°C° 0.5 mm 3 m/S 763 mmHg 86%
07:00 +20°C° 0.1 mm 3 m/S 764 mmHg 83%
08:00 +20°C° 0.1 mm 3 m/S 764 mmHg 81%
09:00 +20°C° 0.1 mm 2 m/S 765 mmHg 79%
10:00 +20°C° 0.1 mm 2 m/S 765 mmHg 78%
11:00 +20°C° 0.1 mm 2 m/S 765 mmHg 76%
12:00 +21°C° 0.1 mm 2 m/S 765 mmHg 74%
13:00 +20°C° 0 mm 2 m/S 764 mmHg 74%
14:00 +20°C° 0 mm 2 m/S 764 mmHg 74%
15:00 +20°C° 0 mm 2 m/S 764 mmHg 74%
16:00 +20°C° 0 mm 2 m/S 764 mmHg 74%
17:00 +20°C° 0 mm 2 m/S 764 mmHg 74%
18:00 +20°C° 0 mm 2 m/S 764 mmHg 75%
19:00 +20°C° 0 mm 2 m/S 765 mmHg 75%
20:00 +20°C° 0 mm 2 m/S 765 mmHg 75%
21:00 +20°C° 0 mm 2 m/S 766 mmHg 75%
22:00 +21°C° 0 mm 1 m/S 766 mmHg 75%
23:00 +20°C° 0 mm 1 m/S 766 mmHg 76%

übermorgen, 16 Juli, Donnerstag

Zeit Temperatur Niederschläge Wind Luftdruck Luftfeuchtigkeit
00:00 +20°C° 0 mm 1 m/S 766 mmHg 77%
01:00 +20°C° 0 mm 1 m/S 765 mmHg 77%
02:00 +20°C° 0 mm 1 m/S 765 mmHg 77%
03:00 +20°C° 0 mm 1 m/S 765 mmHg 77%
04:00 +20°C° 0 mm 1 m/S 765 mmHg 77%
05:00 +20°C° 0 mm 1 m/S 765 mmHg 77%
06:00 +20°C° 0 mm 1 m/S 765 mmHg 77%
07:00 +21°C° 0 mm 1 m/S 765 mmHg 75%
08:00 +21°C° 0 mm 1 m/S 766 mmHg 73%
09:00 +22°C° 0 mm 1 m/S 766 mmHg 71%
10:00 +23°C° 0 mm 2 m/S 766 mmHg 67%
11:00 +24°C° 0 mm 2 m/S 765 mmHg 63%
12:00 +25°C° 0 mm 3 m/S 765 mmHg 59%
13:00 +25°C° 0 mm 3 m/S 764 mmHg 60%
14:00 +25°C° 0 mm 4 m/S 763 mmHg 61%
15:00 +25°C° 0 mm 4 m/S 763 mmHg 62%
16:00 +23°C° 0 mm 4 m/S 763 mmHg 67%
17:00 +22°C° 0 mm 4 m/S 763 mmHg 71%
18:00 +21°C° 0 mm 4 m/S 763 mmHg 75%
19:00 +20°C° 0 mm 4 m/S 763 mmHg 77%
20:00 +20°C° 0 mm 4 m/S 764 mmHg 79%
21:00 +20°C° 0 mm 4 m/S 764 mmHg 80%
22:00 +19°C° 0 mm 3 m/S 764 mmHg 82%
23:00 +19°C° 0 mm 3 m/S 764 mmHg 83%

17 Juli, Freitag

Zeit Temperatur Niederschläge Wind Luftdruck Luftfeuchtigkeit
00:00 +19°C° 0 mm 2 m/S 764 mmHg 84%
01:00 +19°C° 0 mm 2 m/S 763 mmHg 84%
02:00 +18°C° 0 mm 2 m/S 763 mmHg 85%
03:00 +18°C° 0 mm 2 m/S 763 mmHg 85%
04:00 +19°C° 0 mm 1 m/S 763 mmHg 85%
05:00 +19°C° 0 mm 1 m/S 763 mmHg 85%
06:00 +19°C° 0 mm 1 m/S 763 mmHg 85%
07:00 +20°C° 0 mm 1 m/S 763 mmHg 79%
08:00 +22°C° 0 mm 1 m/S 763 mmHg 73%
09:00 +23°C° 0 mm 1 m/S 764 mmHg 67%
10:00 +25°C° 0 mm 1 m/S 763 mmHg 62%
11:00 +27°C° 0 mm 1 m/S 763 mmHg 56%
12:00 +29°C° 0 mm 1 m/S 763 mmHg 51%
13:00 +29°C° 0 mm 2 m/S 762 mmHg 52%
14:00 +28°C° 0 mm 2 m/S 762 mmHg 52%
15:00 +28°C° 0 mm 3 m/S 761 mmHg 53%
16:00 +27°C° 0 mm 3 m/S 761 mmHg 59%
17:00 +26°C° 0 mm 3 m/S 761 mmHg 65%
18:00 +25°C° 0 mm 3 m/S 762 mmHg 71%
19:00 +24°C° 0 mm 3 m/S 762 mmHg 74%
20:00 +24°C° 0 mm 2 m/S 762 mmHg 76%
21:00 +23°C° 0 mm 2 m/S 763 mmHg 78%
22:00 +23°C° 0 mm 2 m/S 763 mmHg 79%
23:00 +21°C° 0 mm 2 m/S 763 mmHg 79%

18 Juli, Samstag

Zeit Temperatur Niederschläge Wind Luftdruck Luftfeuchtigkeit
00:00 +21°C° 0 mm 2 m/S 763 mmHg 80%
01:00 +21°C° 0 mm 2 m/S 763 mmHg 81%
02:00 +21°C° 0 mm 2 m/S 763 mmHg 81%
03:00 +20°C° 0 mm 2 m/S 762 mmHg 82%
04:00 +20°C° 0 mm 2 m/S 762 mmHg 82%
05:00 +21°C° 0 mm 1 m/S 762 mmHg 82%
06:00 +21°C° 0 mm 1 m/S 763 mmHg 83%
07:00 +22°C° 0 mm 1 m/S 763 mmHg 77%
08:00 +23°C° 0 mm 1 m/S 763 mmHg 71%
09:00 +25°C° 0 mm 1 m/S 764 mmHg 65%
10:00 +26°C° 0 mm 1 m/S 764 mmHg 60%
11:00 +28°C° 0 mm 1 m/S 763 mmHg 54%
12:00 +30°C° 0 mm 1 m/S 763 mmHg 48%
13:00 +30°C° 0 mm 2 m/S 763 mmHg 48%
14:00 +30°C° 0 mm 2 m/S 762 mmHg 48%
15:00 +30°C° 0 mm 3 m/S 762 mmHg 48%
16:00 +29°C° 0 mm 3 m/S 762 mmHg 55%
17:00 +27°C° 0 mm 3 m/S 762 mmHg 62%
18:00 +26°C° 0 mm 4 m/S 762 mmHg 68%
19:00 +25°C° 0 mm 3 m/S 763 mmHg 71%
20:00 +24°C° 0 mm 3 m/S 763 mmHg 74%
21:00 +24°C° 0 mm 3 m/S 764 mmHg 77%
22:00 +23°C° 0 mm 2 m/S 764 mmHg 78%
23:00 +23°C° 0 mm 2 m/S 764 mmHg 78%

19 Juli, Sonntag

Zeit Temperatur Niederschläge Wind Luftdruck Luftfeuchtigkeit
00:00 +21°C° 0 mm 2 m/S 764 mmHg 79%
01:00 +21°C° 0 mm 2 m/S 763 mmHg 79%
02:00 +21°C° 0 mm 2 m/S 763 mmHg 79%
03:00 +20°C° 0 mm 2 m/S 763 mmHg 80%
04:00 +20°C° 0 mm 2 m/S 763 mmHg 80%
05:00 +20°C° 0 mm 2 m/S 763 mmHg 80%
06:00 +21°C° 0 mm 1 m/S 763 mmHg 80%
07:00 +22°C° 0 mm 1 m/S 763 mmHg 74%
08:00 +23°C° 0 mm 1 m/S 764 mmHg 68%
09:00 +25°C° 0 mm 1 m/S 764 mmHg 62%
10:00 +27°C° 0 mm 1 m/S 764 mmHg 56%
11:00 +28°C° 0 mm 1 m/S 763 mmHg 50%
12:00 +30°C° 0 mm 1 m/S 763 mmHg 43%
13:00 +30°C° 0 mm 2 m/S 762 mmHg 43%
14:00 +30°C° 0 mm 2 m/S 762 mmHg 43%
15:00 +30°C° 0 mm 3 m/S 761 mmHg 43%
16:00 +29°C° 0 mm 3 m/S 762 mmHg 50%
17:00 +27°C° 0 mm 3 m/S 762 mmHg 56%
18:00 +26°C° 0 mm 3 m/S 762 mmHg 63%
19:00 +25°C° 0 mm 2 m/S 762 mmHg 65%
20:00 +24°C° 0 mm 2 m/S 762 mmHg 67%
21:00 +24°C° 0 mm 2 m/S 763 mmHg 68%
22:00 +23°C° 0 mm 2 m/S 763 mmHg 68%
23:00 +23°C° 0 mm 1 m/S 763 mmHg 68%
Mehr zeigen